When you browse on this site, cookies collect data to enhance your experience and personalize the content and advertising you see.
Visit our Privacy Policy to learn more. By continuing to use the site, you agree to this use of cookies and data.
  • In Portugal
  • List of Countries
  • For 7 days
  • Water Temperature
  • Weather Map
  • Weather Widgets
  • user-avatar
    Login

    Hourly Weather Syugut

    Today, 25 May, Monday

    Time Temperature Precipitation Wind Pressure Humidity
    00:00 +9°C° 0 mm 1 mps 620 mmHg 93%
    01:00 +9°C° 0.2 mm 1 mps 620 mmHg 92%
    02:00 +9°C° 0.2 mm 1 mps 620 mmHg 91%
    03:00 +8°C° 0 mm 0 mps 619 mmHg 91%
    04:00 +10°C° 0.2 mm 1 mps 620 mmHg 88%
    05:00 +11°C° 0.2 mm 1 mps 621 mmHg 85%
    06:00 +13°C° 0.2 mm 1 mps 622 mmHg 83%
    07:00 +14°C° 0.1 mm 1 mps 622 mmHg 80%
    08:00 +15°C° 0.1 mm 2 mps 622 mmHg 77%
    09:00 +16°C° 0 mm 3 mps 622 mmHg 72%
    10:00 +17°C° 0.2 mm 3 mps 622 mmHg 70%
    11:00 +18°C° 0.2 mm 3 mps 622 mmHg 68%
    12:00 +19°C° 0.2 mm 4 mps 622 mmHg 65%
    13:00 +18°C° 0.2 mm 3 mps 621 mmHg 70%
    14:00 +17°C° 0.2 mm 3 mps 620 mmHg 75%
    15:00 +16°C° 0.2 mm 2 mps 619 mmHg 79%
    16:00 +15°C° 0.5 mm 2 mps 618 mmHg 80%
    17:00 +15°C° 0.5 mm 2 mps 618 mmHg 81%
    18:00 +14°C° 0.5 mm 1 mps 617 mmHg 82%
    19:00 +13°C° 0.3 mm 1 mps 617 mmHg 85%
    20:00 +12°C° 0.3 mm 1 mps 616 mmHg 89%
    21:00 +11°C° 0.3 mm 1 mps 616 mmHg 93%
    22:00 +10°C° 0 mm 2 mps 616 mmHg 93%
    23:00 +9°C° 0 mm 2 mps 615 mmHg 94%

    Tomorrow, 26 May, Tuesday

    Time Temperature Precipitation Wind Pressure Humidity
    00:00 +9°C° 0 mm 2 mps 615 mmHg 94%
    01:00 +8°C° 0 mm 2 mps 615 mmHg 93%
    02:00 +8°C° 0 mm 2 mps 615 mmHg 91%
    03:00 +7°C° 0 mm 2 mps 615 mmHg 90%
    04:00 +8°C° 0 mm 2 mps 615 mmHg 85%
    05:00 +9°C° 0 mm 2 mps 616 mmHg 80%
    06:00 +10°C° 0 mm 2 mps 617 mmHg 75%
    07:00 +12°C° 0 mm 2 mps 618 mmHg 66%
    08:00 +14°C° 0 mm 2 mps 618 mmHg 58%
    09:00 +16°C° 0 mm 3 mps 619 mmHg 50%
    10:00 +17°C° 0 mm 3 mps 620 mmHg 47%
    11:00 +18°C° 0 mm 3 mps 620 mmHg 45%
    12:00 +19°C° 0 mm 3 mps 621 mmHg 43%
    13:00 +19°C° 0 mm 3 mps 621 mmHg 43%
    14:00 +19°C° 0 mm 3 mps 621 mmHg 43%
    15:00 +19°C° 0 mm 3 mps 621 mmHg 43%
    16:00 +18°C° 0 mm 2 mps 621 mmHg 49%
    17:00 +17°C° 0 mm 2 mps 621 mmHg 55%
    18:00 +16°C° 0 mm 2 mps 621 mmHg 60%
    19:00 +14°C° 0 mm 2 mps 620 mmHg 63%
    20:00 +12°C° 0 mm 2 mps 620 mmHg 65%
    21:00 +10°C° 0 mm 1 mps 619 mmHg 67%
    22:00 +9°C° 0 mm 1 mps 619 mmHg 63%
    23:00 +9°C° 0 mm 1 mps 619 mmHg 58%

    Day after tomorrow, 27 May, Wednesday

    Time Temperature Precipitation Wind Pressure Humidity
    00:00 +9°C° 0 mm 1 mps 619 mmHg 54%
    01:00 +9°C° 0 mm 1 mps 619 mmHg 54%
    02:00 +9°C° 0 mm 1 mps 619 mmHg 54%
    03:00 +9°C° 0 mm 1 mps 619 mmHg 54%
    04:00 +10°C° 0 mm 1 mps 620 mmHg 52%
    05:00 +12°C° 0 mm 1 mps 621 mmHg 51%
    06:00 +14°C° 0 mm 1 mps 622 mmHg 49%
    07:00 +15°C° 0 mm 1 mps 622 mmHg 49%
    08:00 +16°C° 0 mm 2 mps 623 mmHg 49%
    09:00 +18°C° 0 mm 2 mps 623 mmHg 49%
    10:00 +19°C° 0 mm 2 mps 623 mmHg 50%
    11:00 +19°C° 0 mm 2 mps 623 mmHg 51%
    12:00 +20°C° 0 mm 2 mps 623 mmHg 52%
    13:00 +20°C° 0 mm 2 mps 623 mmHg 52%
    14:00 +20°C° 0 mm 2 mps 623 mmHg 52%
    15:00 +21°C° 0 mm 2 mps 622 mmHg 52%
    16:00 +20°C° 0 mm 2 mps 622 mmHg 58%
    17:00 +20°C° 0 mm 1 mps 622 mmHg 64%
    18:00 +19°C° 0 mm 1 mps 621 mmHg 70%
    19:00 +16°C° 0 mm 1 mps 620 mmHg 71%
    20:00 +14°C° 0 mm 1 mps 620 mmHg 71%
    21:00 +12°C° 0 mm 1 mps 619 mmHg 71%
    22:00 +12°C° 0 mm 1 mps 619 mmHg 68%
    23:00 +11°C° 0 mm 1 mps 618 mmHg 64%

    28 May, Thursday

    Time Temperature Precipitation Wind Pressure Humidity
    00:00 +11°C° 0 mm 1 mps 618 mmHg 60%
    01:00 +11°C° 0 mm 1 mps 618 mmHg 58%
    02:00 +11°C° 0 mm 1 mps 618 mmHg 57%
    03:00 +11°C° 0 mm 1 mps 617 mmHg 55%
    04:00 +13°C° 0 mm 1 mps 618 mmHg 54%
    05:00 +15°C° 0 mm 1 mps 619 mmHg 53%
    06:00 +18°C° 0 mm 1 mps 620 mmHg 52%
    07:00 +19°C° 0 mm 1 mps 620 mmHg 47%
    08:00 +20°C° 0 mm 2 mps 620 mmHg 43%
    09:00 +23°C° 0 mm 2 mps 621 mmHg 39%
    10:00 +23°C° 0 mm 2 mps 621 mmHg 38%
    11:00 +24°C° 0 mm 2 mps 621 mmHg 37%
    12:00 +24°C° 0 mm 3 mps 621 mmHg 36%
    13:00 +24°C° 0 mm 2 mps 620 mmHg 36%
    14:00 +24°C° 0 mm 2 mps 620 mmHg 36%
    15:00 +24°C° 0 mm 2 mps 620 mmHg 36%
    16:00 +23°C° 0 mm 2 mps 619 mmHg 44%
    17:00 +22°C° 0 mm 1 mps 619 mmHg 51%
    18:00 +21°C° 0 mm 1 mps 618 mmHg 59%
    19:00 +19°C° 0 mm 1 mps 617 mmHg 62%
    20:00 +16°C° 0 mm 1 mps 617 mmHg 64%
    21:00 +14°C° 0 mm 1 mps 616 mmHg 67%
    22:00 +14°C° 0 mm 1 mps 616 mmHg 61%
    23:00 +14°C° 0 mm 1 mps 615 mmHg 54%

    29 May, Friday

    Time Temperature Precipitation Wind Pressure Humidity
    00:00 +14°C° 0 mm 1 mps 615 mmHg 47%
    01:00 +13°C° 0 mm 1 mps 615 mmHg 47%
    02:00 +13°C° 0 mm 1 mps 615 mmHg 47%
    03:00 +13°C° 0 mm 1 mps 614 mmHg 47%
    04:00 +15°C° 0 mm 1 mps 615 mmHg 49%
    05:00 +16°C° 0 mm 1 mps 616 mmHg 51%
    06:00 +19°C° 0 mm 1 mps 616 mmHg 53%
    07:00 +21°C° 0 mm 1 mps 617 mmHg 48%
    08:00 +21°C° 0 mm 2 mps 617 mmHg 42%
    09:00 +24°C° 0 mm 3 mps 618 mmHg 37%
    10:00 +25°C° 0 mm 3 mps 617 mmHg 36%
    11:00 +25°C° 0 mm 4 mps 617 mmHg 36%
    12:00 +26°C° 0 mm 4 mps 617 mmHg 36%
    13:00 +25°C° 0 mm 4 mps 617 mmHg 37%
    14:00 +25°C° 0 mm 4 mps 616 mmHg 38%
    15:00 +25°C° 0 mm 4 mps 616 mmHg 40%
    16:00 +23°C° 0.2 mm 4 mps 615 mmHg 47%
    17:00 +22°C° 0.2 mm 3 mps 614 mmHg 54%
    18:00 +20°C° 0.2 mm 3 mps 614 mmHg 60%
    19:00 +19°C° 0.4 mm 2 mps 613 mmHg 64%
    20:00 +17°C° 0.4 mm 2 mps 613 mmHg 68%
    21:00 +15°C° 0.4 mm 1 mps 613 mmHg 71%
    22:00 +14°C° 0.5 mm 1 mps 612 mmHg 72%
    23:00 +14°C° 0.5 mm 1 mps 612 mmHg 73%

    30 May, Saturday

    Time Temperature Precipitation Wind Pressure Humidity
    00:00 +13°C° 0.5 mm 1 mps 612 mmHg 74%
    01:00 +13°C° 0.2 mm 1 mps 612 mmHg 75%
    02:00 +13°C° 0.2 mm 1 mps 612 mmHg 75%
    03:00 +12°C° 0.2 mm 1 mps 612 mmHg 75%
    04:00 +14°C° 0 mm 1 mps 613 mmHg 72%
    05:00 +15°C° 0 mm 1 mps 614 mmHg 69%
    06:00 +18°C° 0 mm 1 mps 615 mmHg 66%
    07:00 +19°C° 0 mm 1 mps 616 mmHg 60%
    08:00 +19°C° 0 mm 2 mps 617 mmHg 55%
    09:00 +20°C° 0 mm 3 mps 617 mmHg 49%
    10:00 +20°C° 0.1 mm 3 mps 618 mmHg 48%
    11:00 +20°C° 0.1 mm 3 mps 618 mmHg 46%
    12:00 +21°C° 0.1 mm 4 mps 618 mmHg 45%
    13:00 +21°C° 0.1 mm 4 mps 618 mmHg 44%
    14:00 +20°C° 0.1 mm 3 mps 618 mmHg 44%
    15:00 +20°C° 0.1 mm 3 mps 618 mmHg 44%
    16:00 +19°C° 0.1 mm 3 mps 618 mmHg 48%
    17:00 +18°C° 0.1 mm 3 mps 618 mmHg 53%
    18:00 +17°C° 0.1 mm 2 mps 618 mmHg 57%
    19:00 +15°C° 0 mm 2 mps 618 mmHg 62%
    20:00 +13°C° 0 mm 1 mps 617 mmHg 67%
    21:00 +12°C° 0 mm 1 mps 617 mmHg 72%
    22:00 +11°C° 0 mm 1 mps 617 mmHg 71%
    23:00 +11°C° 0 mm 1 mps 617 mmHg 69%
    Show more